| time (UTC) | temp F | wind direction | speed knots | gust knots | rain 1hr in | rain 24hr in | rain mn in | humidity % | barometer mb |
| 20260510060844 | 57 | 209 | 0.0 | 0.0 | 0.00 | 0.00 | 0.00 | 82 | 1010.0 |
| 20260510060346 | 58 | 209 | 0.0 | 0.0 | 0.00 | 0.00 | 0.00 | 82 | 1010.1 |
| 20260510055845 | 58 | 209 | 0.0 | 0.0 | 0.00 | 0.00 | 0.00 | 82 | 1010.1 |
| 20260510055834 | 58 | 209 | 0.0 | 0.0 | 0.00 | 0.00 | 0.00 | 82 | 1010.2 |
| 20260510054844 | 58 | 209 | 0.0 | 0.9 | 0.00 | 0.00 | 0.00 | 82 | 1010.1 |
| 20260510054347 | 58 | 209 | 0.0 | 0.9 | 0.00 | 0.00 | 0.00 | 82 | 1010.2 |
| 20260510053845 | 58 | 209 | 0.0 | 0.0 | 0.00 | 0.00 | 0.00 | 82 | 1010.2 |
| 20260510053345 | 58 | 209 | 0.0 | 0.0 | 0.00 | 0.00 | 0.00 | 81 | 1010.1 |
| 20260510052846 | 58 | 209 | 0.0 | 0.9 | 0.00 | 0.00 | 0.00 | 81 | 1010.1 |
| 20260510052833 | 58 | 209 | 0.0 | 0.9 | 0.00 | 0.00 | 0.00 | 81 | 1010.2 |
| 20260510051843 | 58 | 146 | 0.0 | 0.0 | 0.00 | 0.00 | 0.00 | 81 | 1010.2 |
| 20260510051343 | 59 | 146 | 0.0 | 0.0 | 0.00 | 0.00 | 0.00 | 81 | 1010.1 |
| 20260510050843 | 59 | 146 | 0.0 | 0.0 | 0.00 | 0.00 | 0.00 | 81 | 1010.2 |
| 20260510050343 | 59 | 146 | 0.0 | 0.0 | 0.00 | 0.00 | 0.00 | 81 | 1010.1 |
| 20260510050325 | 59 | 147 | 0.0 | 0.0 | 0.00 | 0.00 | 0.00 | 81 | 1010.1 |
| 20260510045343 | 59 | 146 | 0.0 | 0.0 | 0.00 | 0.00 | 0.00 | 81 | 1010.1 |
| 20260510044844 | 59 | 146 | 0.0 | 0.0 | 0.00 | 0.00 | 0.00 | 81 | 1010.1 |
| 20260510044342 | 59 | 146 | 0.0 | 0.0 | 0.00 | 0.00 | 0.00 | 80 | 1010.1 |
| 20260510043839 | 59 | 146 | 0.0 | 0.0 | 0.00 | 0.00 | 0.00 | 81 | 1009.9 |
| 20260510043339 | 59 | 146 | 0.0 | 0.0 | 0.00 | 0.00 | 0.00 | 80 | 1010.0 |
| 20260510042840 | 59 | 146 | 0.0 | 0.0 | 0.00 | 0.00 | 0.00 | 80 | 1009.9 |
| 20260510042338 | 59 | 146 | 0.0 | 0.9 | 0.00 | 0.00 | 0.00 | 80 | 1009.8 |
| 20260510041835 | 60 | 146 | 0.0 | 2.6 | 0.00 | 0.00 | 0.00 | 80 | 1009.9 |
| 20260510041810 | 60 | 213 | 0.0 | 2.6 | 0.00 | 0.00 | 0.00 | 80 | 1009.9 |
| 20260510040831 | 60 | 185 | 0.0 | 1.7 | 0.00 | 0.00 | 0.00 | 80 | 1009.9 |
| 20260510040332 | 60 | 201 | 0.0 | 0.0 | 0.00 | 0.00 | 0.00 | 79 | 1010.0 |
| 20260510035829 | 60 | 201 | 0.0 | 0.0 | 0.00 | 0.00 | 0.00 | 79 | 1009.9 |
| 20260510035550 | 60 | 201 | 0.0 | 0.0 | 0.00 | 0.00 | 0.00 | 79 | 1009.9 |
| 20260510034830 | 60 | 201 | 0.0 | 0.0 | 0.00 | 0.00 | 0.00 | 79 | 1010.0 |
| 20260510034329 | 60 | 201 | 0.0 | 0.0 | 0.00 | 0.00 | 0.00 | 79 | 1010.0 |
| 20260510033830 | 61 | 201 | 0.0 | 0.0 | 0.00 | 0.00 | 0.00 | 79 | 1010.1 |
| 20260510033328 | 61 | 201 | 0.0 | 0.0 | 0.00 | 0.00 | 0.00 | 79 | 1009.9 |
| 20260510032830 | 61 | 201 | 0.0 | 0.0 | 0.00 | 0.00 | 0.00 | 78 | 1009.9 |
| 20260510032330 | 61 | 201 | 0.0 | 0.0 | 0.00 | 0.00 | 0.00 | 78 | 1009.9 |
| 20260510031829 | 61 | 201 | 0.0 | 0.0 | 0.00 | 0.00 | 0.00 | 78 | 1009.8 |
| 20260510031331 | 61 | 201 | 0.0 | 0.0 | 0.00 | 0.00 | 0.00 | 77 | 1009.8 |
| 20260510031101 | 61 | 201 | 0.0 | 0.0 | 0.00 | 0.00 | 0.00 | 77 | 1009.7 |
| 20260510030330 | 62 | 201 | 0.0 | 0.0 | 0.00 | 0.00 | 0.00 | 77 | 1009.7 |
| 20260510030053 | 62 | 201 | 0.0 | 0.0 | 0.00 | 0.00 | 0.00 | 76 | 1009.6 |
| 20260510025326 | 62 | 201 | 0.0 | 0.0 | 0.00 | 0.00 | 0.00 | 76 | 1009.6 |
| 20260510024830 | 62 | 201 | 0.0 | 0.0 | 0.00 | 0.00 | 0.00 | 76 | 1009.7 |
| 20260510024324 | 62 | 201 | 0.0 | 0.0 | 0.00 | 0.00 | 0.00 | 76 | 1009.6 |
| 20260510023824 | 62 | 201 | 0.0 | 0.0 | 0.00 | 0.00 | 0.00 | 76 | 1009.5 |
| 20260510023549 | 62 | 201 | 0.0 | 0.0 | 0.00 | 0.00 | 0.00 | 75 | 1009.4 |
| 20260510022820 | 62 | 201 | 0.0 | 0.0 | 0.00 | 0.00 | 0.00 | 75 | 1009.4 |
| 20260510022313 | 63 | 201 | 0.0 | 0.0 | 0.00 | 0.00 | 0.00 | 74 | 1009.5 |
| 20260510021807 | 63 | 201 | 0.0 | 0.0 | 0.00 | 0.00 | 0.00 | 74 | 1009.4 |
| 20260510021301 | 63 | 201 | 0.0 | 0.0 | 0.00 | 0.00 | 0.00 | 74 | 1009.4 |
| 20260510020755 | 63 | 201 | 0.0 | 0.0 | 0.00 | 0.00 | 0.00 | 73 | 1009.3 |
| 20260510020250 | 63 | 201 | 0.0 | 0.0 | 0.00 | 0.00 | 0.00 | 73 | 1009.3 |
| 20260510015744 | 64 | 201 | 0.0 | 0.0 | 0.00 | 0.00 | 0.00 | 73 | 1009.2 |
| 20260510015246 | 64 | 201 | 0.0 | 0.0 | 0.00 | 0.00 | 0.00 | 72 | 1009.1 |
| 20260510014747 | 64 | 201 | 0.0 | 0.0 | 0.00 | 0.00 | 0.00 | 73 | 1009.0 |
| 20260510014246 | 64 | 201 | 0.0 | 0.0 | 0.00 | 0.00 | 0.00 | 73 | 1009.0 |
| 20260510013745 | 64 | 201 | 0.0 | 0.0 | 0.00 | 0.00 | 0.00 | 72 | 1008.9 |
| 20260510013244 | 65 | 201 | 0.0 | 0.0 | 0.00 | 0.00 | 0.00 | 72 | 1008.8 |
| 20260510012744 | 65 | 201 | 0.0 | 0.0 | 0.00 | 0.00 | 0.00 | 71 | 1008.8 |
| 20260510012241 | 65 | 201 | 0.0 | 0.0 | 0.00 | 0.00 | 0.00 | 71 | 1008.6 |
| 20260510011741 | 65 | 201 | 0.0 | 0.0 | 0.00 | 0.00 | 0.00 | 71 | 1008.6 |
| 20260510011239 | 65 | 201 | 0.0 | 0.0 | 0.00 | 0.00 | 0.00 | 71 | 1008.5 |
| 20260510010739 | 66 | 201 | 0.0 | 0.0 | 0.00 | 0.00 | 0.00 | 70 | 1008.5 |
| 20260510010239 | 66 | 201 | 0.0 | 0.0 | 0.00 | 0.00 | 0.00 | 70 | 1008.4 |
| 20260510005737 | 66 | 201 | 0.0 | 0.0 | 0.00 | 0.00 | 0.00 | 69 | 1008.5 |
| 20260510005500 | 67 | 201 | 0.0 | 0.0 | 0.00 | 0.00 | 0.00 | 69 | 1008.4 |
| 20260510004736 | 67 | 201 | 0.0 | 0.9 | 0.00 | 0.00 | 0.00 | 69 | 1008.3 |
| 20260510004234 | 67 | 201 | 0.0 | 0.9 | 0.00 | 0.00 | 0.00 | 69 | 1008.2 |
| 20260510003734 | 68 | 201 | 0.0 | 0.0 | 0.00 | 0.00 | 0.00 | 68 | 1008.1 |
| 20260510003230 | 68 | 201 | 0.0 | 0.0 | 0.00 | 0.00 | 0.00 | 68 | 1008.1 |
| 20260510002728 | 68 | 201 | 0.0 | 0.0 | 0.00 | 0.00 | 0.00 | 67 | 1008.1 |
| 20260510002228 | 69 | 201 | 0.0 | 0.0 | 0.00 | 0.00 | 0.00 | 66 | 1008.0 |
| 20260510001722 | 69 | 201 | 0.0 | 0.0 | 0.00 | 0.00 | 0.00 | 66 | 1008.1 |
| 20260510001216 | 69 | 201 | 0.0 | 0.0 | 0.00 | 0.00 | 0.00 | 66 | 1008.0 |
| 20260510000710 | 70 | 201 | 0.0 | 0.0 | 0.00 | 0.00 | 0.00 | 65 | 1008.1 |
| 20260510000433 | 70 | 201 | 0.0 | 0.0 | 0.00 | 0.00 | 0.00 | 64 | 1008.0 |
| 20260509235658 | 70 | 201 | 0.0 | 0.0 | 0.00 | 0.00 | 0.00 | 64 | 1007.9 |
| 20260509235153 | 71 | 201 | 0.0 | 0.0 | 0.00 | 0.00 | 0.00 | 63 | 1007.8 |
| 20260509234646 | 71 | 201 | 0.0 | 0.0 | 0.00 | 0.00 | 0.00 | 61 | 1007.8 |
| 20260509234153 | 71 | 201 | 0.0 | 0.0 | 0.00 | 0.00 | 0.00 | 61 | 1007.8 |
| 20260509233635 | 72 | 201 | 0.0 | 0.0 | 0.00 | 0.00 | 0.00 | 61 | 1007.8 |
| 20260509233129 | 72 | 201 | 0.0 | 0.0 | 0.00 | 0.00 | 0.00 | 61 | 1007.7 |
| 20260509232623 | 72 | 201 | 0.0 | 0.0 | 0.00 | 0.00 | 0.00 | 60 | 1007.7 |
| 20260509232117 | 73 | 201 | 0.0 | 0.0 | 0.00 | 0.00 | 0.00 | 60 | 1007.7 |
| 20260509231610 | 73 | 201 | 0.0 | 0.9 | 0.00 | 0.00 | 0.00 | 59 | 1007.6 |
| 20260509231104 | 73 | 201 | 0.0 | 0.9 | 0.00 | 0.00 | 0.00 | 58 | 1007.7 |
| 20260509231036 | 73 | 222 | 0.0 | 0.0 | 0.00 | 0.00 | 0.00 | 58 | 1007.7 |
| 20260509230052 | 74 | 222 | 0.0 | 0.0 | 0.00 | 0.00 | 0.00 | 59 | 1007.7 |
| 20260509225547 | 74 | 222 | 0.0 | 0.9 | 0.00 | 0.00 | 0.00 | 57 | 1007.7 |
| 20260509225041 | 74 | 222 | 0.0 | 0.9 | 0.00 | 0.00 | 0.00 | 59 | 1007.7 |
| 20260509224535 | 74 | 222 | 0.0 | 0.0 | 0.00 | 0.00 | 0.00 | 58 | 1007.6 |
| 20260509224511 | 73 | 222 | 0.0 | 0.9 | 0.00 | 0.00 | 0.00 | 58 | 1007.6 |
| 20260509223522 | 73 | 222 | 0.0 | 0.9 | 0.00 | 0.00 | 0.00 | 58 | 1007.7 |
| 20260509223016 | 73 | 222 | 0.0 | 0.9 | 0.00 | 0.00 | 0.00 | 59 | 1007.8 |
| 20260509222511 | 73 | 222 | 0.0 | 0.9 | 0.00 | 0.00 | 0.00 | 58 | 1007.7 |
| 20260509222226 | 74 | 222 | 0.0 | 0.9 | 0.00 | 0.00 | 0.00 | 57 | 1007.8 |
| 20260509221458 | 74 | 222 | 0.0 | 0.9 | 0.00 | 0.00 | 0.00 | 57 | 1007.7 |
| 20260509220953 | 74 | 222 | 0.0 | 1.7 | 0.00 | 0.00 | 0.00 | 56 | 1007.8 |
| 20260509220446 | 73 | 222 | 0.0 | 1.7 | 0.00 | 0.00 | 0.00 | 55 | 1007.9 |
| 20260509215940 | 73 | 286 | 0.0 | 0.9 | 0.00 | 0.00 | 0.00 | 55 | 1007.8 |
| 20260509215434 | 73 | 286 | 0.0 | 0.9 | 0.00 | 0.00 | 0.00 | 54 | 1007.8 |
| 20260509214930 | 73 | 286 | 0.0 | 0.9 | 0.00 | 0.00 | 0.00 | 53 | 1007.8 |
| 20260509214741 | 73 | 221 | 0.0 | 0.9 | 0.00 | 0.00 | 0.00 | 54 | 1007.8 |
| 20260509214651 | 74 | 263 | 0.0 | 1.7 | 0.00 | 0.00 | 0.00 | 53 | 1007.8 |
| 20260509213410 | 74 | 143 | 0.9 | 3.5 | 0.00 | 0.00 | 0.00 | 53 | 1007.7 |
| 20260509212904 | 74 | 259 | 0.9 | 3.5 | 0.00 | 0.00 | 0.00 | 50 | 1007.7 |
| 20260509212358 | 74 | 266 | 0.9 | 5.2 | 0.00 | 0.00 | 0.00 | 52 | 1007.6 |
| 20260509211852 | 74 | 244 | 0.9 | 5.2 | 0.00 | 0.00 | 0.00 | 55 | 1007.6 |
| 20260509211346 | 74 | 179 | 0.9 | 3.5 | 0.00 | 0.00 | 0.00 | 52 | 1007.5 |
| 20260509210846 | 75 | 158 | 0.9 | 3.5 | 0.00 | 0.00 | 0.00 | 50 | 1007.6 |
| 20260509210347 | 76 | 177 | 0.9 | 3.5 | 0.00 | 0.00 | 0.00 | 51 | 1007.4 |
| 20260509205846 | 75 | 281 | 0.9 | 2.6 | 0.00 | 0.00 | 0.00 | 49 | 1007.5 |
| 20260509205343 | 75 | 201 | 1.7 | 3.5 | 0.00 | 0.00 | 0.00 | 48 | 1007.5 |
| 20260509204843 | 76 | 264 | 0.9 | 3.5 | 0.00 | 0.00 | 0.00 | 48 | 1007.5 |
| 20260509204343 | 76 | 128 | 0.9 | 5.2 | 0.00 | 0.00 | 0.00 | 51 | 1007.4 |
| 20260509203842 | 75 | 127 | 0.9 | 5.2 | 0.00 | 0.00 | 0.00 | 51 | 1007.3 |
| 20260509203342 | 76 | 156 | 0.9 | 5.2 | 0.00 | 0.00 | 0.00 | 52 | 1007.4 |
| 20260509202843 | 78 | 254 | 1.7 | 5.2 | 0.00 | 0.00 | 0.00 | 47 | 1007.4 |
| 20260509202340 | 77 | 88 | 1.7 | 5.2 | 0.00 | 0.00 | 0.00 | 48 | 1007.4 |
| 20260509201841 | 76 | 279 | 1.7 | 7.0 | 0.00 | 0.00 | 0.00 | 47 | 1007.4 |
| 20260509201603 | 77 | 27 | 1.7 | 7.0 | 0.00 | 0.00 | 0.00 | 45 | 1007.4 |
| 20260509201104 | 76 | 213 | 1.7 | 7.8 | 0.00 | 0.00 | 0.00 | 47 | 1007.5 |
| 20260509200341 | 77 | 197 | 1.7 | 7.8 | 0.00 | 0.00 | 0.00 | 48 | 1007.6 |
| 20260509195839 | 77 | 97 | 1.7 | 7.0 | 0.00 | 0.00 | 0.00 | 48 | 1007.7 |
| 20260509195337 | 77 | 35 | 1.7 | 6.1 | 0.00 | 0.00 | 0.00 | 45 | 1007.8 |
| 20260509194839 | 76 | 225 | 1.7 | 7.0 | 0.00 | 0.00 | 0.00 | 47 | 1007.8 |
| 20260509194334 | 77 | 324 | 0.9 | 7.0 | 0.00 | 0.00 | 0.00 | 51 | 1007.9 |
| 20260509193828 | 77 | 302 | 0.9 | 5.2 | 0.00 | 0.00 | 0.00 | 47 | 1008.0 |
| 20260509193555 | 75 | 264 | 1.7 | 4.3 | 0.00 | 0.00 | 0.00 | 52 | 1008.0 |
| 20260509193041 | 74 | 293 | 0.9 | 4.3 | 0.00 | 0.00 | 0.00 | 52 | 1008.2 |
| 20260509192318 | 74 | 243 | 0.9 | 5.2 | 0.00 | 0.00 | 0.00 | 52 | 1008.3 |
| 20260509191817 | 73 | 59 | 0.9 | 5.2 | 0.00 | 0.00 | 0.00 | 55 | 1008.3 |
| 20260509191318 | 73 | 244 | 0.9 | 5.2 | 0.00 | 0.00 | 0.00 | 56 | 1008.4 |
| 20260509190814 | 74 | 202 | 1.7 | 4.3 | 0.00 | 0.00 | 0.00 | 54 | 1008.4 |
| 20260509190315 | 75 | 126 | 0.9 | 4.3 | 0.00 | 0.00 | 0.00 | 51 | 1008.5 |
| 20260509185815 | 74 | 134 | 0.9 | 3.5 | 0.00 | 0.00 | 0.00 | 54 | 1008.5 |
| 20260509185313 | 73 | 128 | 0.9 | 2.6 | 0.00 | 0.00 | 0.00 | 57 | 1008.6 |
| 20260509184815 | 72 | 127 | 0.9 | 2.6 | 0.00 | 0.00 | 0.00 | 60 | 1008.7 |
| 20260509184315 | 71 | 157 | 0.9 | 3.5 | 0.00 | 0.00 | 0.00 | 59 | 1008.8 |
| 20260509183816 | 71 | 255 | 0.9 | 3.5 | 0.00 | 0.00 | 0.00 | 60 | 1008.9 |
| 20260509183314 | 72 | 15 | 0.9 | 3.5 | 0.00 | 0.00 | 0.00 | 57 | 1009.0 |
| 20260509182810 | 72 | 277 | 0.0 | 1.7 | 0.00 | 0.00 | 0.00 | 61 | 1009.0 |
| 20260509182309 | 72 | 189 | 0.9 | 1.7 | 0.00 | 0.00 | 0.00 | 60 | 1009.2 |
| 20260509181810 | 71 | 234 | 0.9 | 3.5 | 0.00 | 0.00 | 0.00 | 61 | 1009.4 |
| 20260509181310 | 71 | 134 | 0.9 | 3.5 | 0.00 | 0.00 | 0.00 | 60 | 1009.5 |
| 20260509180809 | 71 | 291 | 0.9 | 4.3 | 0.00 | 0.00 | 0.00 | 61 | 1009.5 |
| 20260509180532 | 71 | 16 | 0.9 | 4.3 | 0.00 | 0.00 | 0.00 | 62 | 1009.5 |
| 20260509175810 | 70 | 17 | 0.9 | 3.5 | 0.00 | 0.00 | 0.00 | 60 | 1009.5 |
| 20260509175309 | 69 | 204 | 1.7 | 6.1 | 0.00 | 0.00 | 0.00 | 62 | 1009.5 |
| 20260509174811 | 69 | 283 | 1.7 | 6.1 | 0.00 | 0.00 | 0.00 | 61 | 1009.7 |
| 20260509174305 | 69 | 207 | 0.9 | 4.3 | 0.00 | 0.00 | 0.00 | 61 | 1009.8 |
| 20260509173807 | 69 | 238 | 0.9 | 3.5 | 0.00 | 0.00 | 0.00 | 62 | 1009.8 |
| 20260509173307 | 69 | 202 | 0.9 | 6.1 | 0.00 | 0.00 | 0.00 | 62 | 1009.8 |
| 20260509172806 | 69 | 245 | 0.9 | 6.1 | 0.00 | 0.00 | 0.00 | 62 | 1009.9 |
| 20260509172308 | 69 | 217 | 0.9 | 5.2 | 0.00 | 0.00 | 0.00 | 63 | 1009.9 |
| 20260509172306 | 68 | 239 | 1.7 | 3.5 | 0.00 | 0.00 | 0.00 | 62 | 1010.0 |
| 20260509171308 | 68 | 197 | 1.7 | 3.5 | 0.00 | 0.00 | 0.00 | 62 | 1009.9 |
| 20260509170806 | 68 | 66 | 2.6 | 7.0 | 0.00 | 0.00 | 0.00 | 62 | 1009.9 |
| 20260509170308 | 68 | 264 | 2.6 | 7.8 | 0.00 | 0.00 | 0.00 | 62 | 1010.0 |
| 20260509165801 | 68 | 219 | 2.6 | 7.8 | 0.00 | 0.00 | 0.00 | 61 | 1009.9 |
| 20260509165517 | 68 | 166 | 1.7 | 7.8 | 0.00 | 0.00 | 0.00 | 62 | 1009.8 |
| 20260509164752 | 69 | 217 | 1.7 | 7.8 | 0.00 | 0.00 | 0.00 | 61 | 1009.9 |
| 20260509164252 | 69 | 268 | 1.7 | 6.1 | 0.00 | 0.00 | 0.00 | 59 | 1009.8 |
| 20260509164021 | 71 | 217 | 1.7 | 6.1 | 0.00 | 0.00 | 0.00 | 56 | 1009.9 |
| 20260509163252 | 71 | 144 | 1.7 | 9.6 | 0.00 | 0.00 | 0.00 | 61 | 1009.9 |
| 20260509162752 | 69 | 298 | 1.7 | 9.6 | 0.00 | 0.00 | 0.00 | 58 | 1009.9 |
| 20260509162250 | 69 | 123 | 1.7 | 7.0 | 0.00 | 0.00 | 0.00 | 61 | 1010.0 |
| 20260509161750 | 68 | 124 | 1.7 | 7.0 | 0.00 | 0.00 | 0.00 | 60 | 1010.1 |
| 20260509161247 | 68 | 107 | 1.7 | 7.0 | 0.00 | 0.00 | 0.00 | 61 | 1010.2 |
| 20260509160749 | 68 | 130 | 2.6 | 7.0 | 0.00 | 0.00 | 0.00 | 61 | 1010.2 |
| 20260509160248 | 68 | 228 | 2.6 | 6.1 | 0.00 | 0.00 | 0.00 | 59 | 1010.2 |
| 20260509160009 | 68 | 252 | 2.6 | 9.6 | 0.00 | 0.00 | 0.00 | 60 | 1010.1 |
| 20260509155244 | 67 | 278 | 1.7 | 9.6 | 0.00 | 0.00 | 0.00 | 59 | 1010.1 |
| 20260509154744 | 68 | 282 | 0.9 | 3.5 | 0.00 | 0.00 | 0.00 | 61 | 1010.0 |
| 20260509154242 | 67 | 194 | 0.9 | 5.2 | 0.00 | 0.00 | 0.00 | 60 | 1010.1 |
| 20260509153740 | 67 | 244 | 1.7 | 6.1 | 0.00 | 0.00 | 0.00 | 61 | 1010.2 |
| 20260509153509 | 67 | 311 | 1.7 | 6.1 | 0.00 | 0.00 | 0.00 | 61 | 1010.4 |
| 20260509152740 | 67 | 301 | 1.7 | 7.0 | 0.00 | 0.00 | 0.00 | 60 | 1010.4 |
| 20260509152239 | 67 | 111 | 1.7 | 7.0 | 0.00 | 0.00 | 0.00 | 60 | 1010.4 |
| 20260509151733 | 68 | 161 | 1.7 | 6.1 | 0.00 | 0.00 | 0.00 | 62 | 1010.3 |
| 20260509151228 | 67 | 261 | 1.7 | 7.0 | 0.00 | 0.00 | 0.00 | 61 | 1010.3 |
| 20260509150723 | 67 | 177 | 1.7 | 7.8 | 0.00 | 0.00 | 0.00 | 62 | 1010.4 |
| 20260509150220 | 66 | 263 | 2.6 | 7.8 | 0.00 | 0.00 | 0.00 | 62 | 1010.3 |
| 20260509145710 | 66 | 238 | 1.7 | 7.0 | 0.00 | 0.00 | 0.00 | 62 | 1010.4 |
| 20260509145205 | 65 | 163 | 1.7 | 7.0 | 0.00 | 0.00 | 0.00 | 64 | 1010.4 |
| 20260509144658 | 65 | 163 | 1.7 | 7.0 | 0.00 | 0.00 | 0.00 | 67 | 1010.6 |
| 20260509144153 | 65 | 126 | 1.7 | 7.0 | 0.00 | 0.00 | 0.00 | 65 | 1010.4 |
| 20260509143905 | 64 | 285 | 1.7 | 6.1 | 0.00 | 0.00 | 0.00 | 64 | 1010.6 |
| 20260509143140 | 64 | 123 | 1.7 | 7.8 | 0.00 | 0.00 | 0.00 | 66 | 1010.7 |
| 20260509142634 | 63 | 152 | 1.7 | 7.8 | 0.00 | 0.00 | 0.00 | 68 | 1010.9 |
| 20260509142129 | 63 | 240 | 1.7 | 4.3 | 0.00 | 0.00 | 0.00 | 67 | 1010.9 |
| 20260509141623 | 63 | 192 | 1.7 | 7.0 | 0.00 | 0.00 | 0.00 | 67 | 1011.0 |
| 20260509141116 | 62 | 183 | 1.7 | 7.0 | 0.00 | 0.00 | 0.00 | 68 | 1011.0 |
| 20260509140610 | 62 | 244 | 1.7 | 7.8 | 0.00 | 0.00 | 0.00 | 66 | 1010.9 |
| 20260509140104 | 62 | 335 | 1.7 | 7.8 | 0.00 | 0.00 | 0.00 | 68 | 1010.9 |
| 20260509140046 | 61 | 236 | 1.7 | 5.2 | 0.00 | 0.00 | 0.00 | 68 | 1011.0 |
| 20260509135052 | 61 | 54 | 1.7 | 7.8 | 0.00 | 0.00 | 0.00 | 69 | 1011.1 |
| 20260509134547 | 60 | 355 | 1.7 | 7.8 | 0.00 | 0.00 | 0.00 | 67 | 1011.1 |
| 20260509134040 | 60 | 324 | 0.9 | 5.2 | 0.00 | 0.00 | 0.00 | 69 | 1011.1 |
| 20260509133534 | 60 | 218 | 1.7 | 5.2 | 0.00 | 0.00 | 0.00 | 68 | 1011.1 |
| 20260509133028 | 60 | 142 | 0.9 | 3.5 | 0.00 | 0.00 | 0.00 | 69 | 1011.1 |
| 20260509132522 | 60 | 64 | 0.9 | 3.5 | 0.00 | 0.00 | 0.00 | 70 | 1011.1 |
| 20260509132016 | 59 | 155 | 0.9 | 3.5 | 0.00 | 0.00 | 0.00 | 70 | 1011.1 |
| 20260509131510 | 59 | 115 | 1.7 | 6.1 | 0.00 | 0.00 | 0.00 | 71 | 1011.2 |
| 20260509131004 | 59 | 232 | 0.9 | 6.1 | 0.00 | 0.00 | 0.00 | 72 | 1011.3 |
| 20260509130457 | 59 | 120 | 0.9 | 3.5 | 0.00 | 0.00 | 0.00 | 71 | 1011.3 |
| 20260509130218 | 58 | 123 | 0.9 | 2.6 | 0.00 | 0.00 | 0.00 | 71 | 1011.3 |
| 20260509125446 | 58 | 44 | 0.9 | 7.0 | 0.00 | 0.00 | 0.00 | 71 | 1011.3 |
| 20260509124940 | 58 | 217 | 1.7 | 7.0 | 0.00 | 0.00 | 0.00 | 70 | 1011.3 |
| 20260509124656 | 58 | 274 | 0.9 | 5.2 | 0.00 | 0.00 | 0.00 | 71 | 1011.3 |
| 20260509123929 | 58 | 204 | 0.9 | 2.6 | 0.00 | 0.00 | 0.00 | 70 | 1011.3 |
| 20260509123422 | 58 | 113 | 0.9 | 5.2 | 0.00 | 0.00 | 0.00 | 73 | 1011.4 |
| 20260509123134 | 57 | 247 | 0.9 | 5.2 | 0.00 | 0.00 | 0.00 | 71 | 1011.3 |
| 20260509122410 | 57 | 186 | 0.9 | 4.3 | 0.00 | 0.00 | 0.00 | 71 | 1011.3 |
| 20260509121905 | 57 | 249 | 1.7 | 5.2 | 0.00 | 0.00 | 0.00 | 71 | 1011.3 |
| 20260509121357 | 57 | 159 | 1.7 | 5.2 | 0.00 | 0.00 | 0.00 | 69 | 1011.3 |
| 20260509120853 | 57 | 349 | 0.9 | 3.5 | 0.00 | 0.00 | 0.00 | 70 | 1011.3 |
| 20260509120346 | 57 | 150 | 0.9 | 3.5 | 0.00 | 0.00 | 0.00 | 70 | 1011.3 |
| 20260509115840 | 56 | 208 | 0.9 | 3.5 | 0.00 | 0.00 | 0.00 | 70 | 1011.3 |
| 20260509115334 | 56 | 333 | 0.9 | 3.5 | 0.00 | 0.00 | 0.00 | 69 | 1011.2 |
| 20260509114827 | 56 | 179 | 0.9 | 6.1 | 0.00 | 0.00 | 0.00 | 69 | 1011.1 |
| 20260509114322 | 56 | 224 | 1.7 | 6.1 | 0.00 | 0.00 | 0.00 | 68 | 1011.0 |
| 20260509113815 | 56 | 208 | 0.9 | 2.6 | 0.00 | 0.00 | 0.00 | 69 | 1011.0 |
| 20260509113309 | 56 | 149 | 0.9 | 3.5 | 0.00 | 0.00 | 0.00 | 68 | 1010.9 |
| 20260509112805 | 56 | 141 | 0.9 | 3.5 | 0.00 | 0.00 | 0.00 | 68 | 1011.0 |
| 20260509112306 | 56 | 137 | 0.9 | 3.5 | 0.00 | 0.00 | 0.00 | 67 | 1011.0 |
| 20260509111801 | 56 | 121 | 0.9 | 3.5 | 0.00 | 0.00 | 0.00 | 67 | 1011.0 |
| 20260509111301 | 56 | 109 | 0.9 | 2.6 | 0.00 | 0.00 | 0.00 | 68 | 1010.9 |
| 20260509110801 | 56 | 111 | 0.9 | 2.6 | 0.00 | 0.00 | 0.00 | 68 | 1011.0 |
| 20260509110300 | 56 | 205 | 0.9 | 6.1 | 0.00 | 0.00 | 0.00 | 67 | 1011.0 |
| 20260509105757 | 56 | 188 | 0.9 | 6.1 | 0.00 | 0.00 | 0.00 | 67 | 1011.0 |
| 20260509105259 | 55 | 169 | 0.9 | 1.7 | 0.00 | 0.00 | 0.00 | 66 | 1011.0 |
| 20260509105016 | 55 | 173 | 0.9 | 2.6 | 0.00 | 0.00 | 0.00 | 66 | 1010.9 |
| 20260509104258 | 55 | 119 | 0.9 | 4.3 | 0.00 | 0.00 | 0.00 | 66 | 1011.0 |
| 20260509103757 | 56 | 156 | 0.0 | 4.3 | 0.00 | 0.00 | 0.00 | 66 | 1011.0 |
| 20260509103255 | 56 | 157 | 0.0 | 2.6 | 0.00 | 0.00 | 0.00 | 66 | 1010.9 |
| 20260509102754 | 56 | 205 | 0.0 | 1.7 | 0.00 | 0.00 | 0.00 | 66 | 1010.9 |
| 20260509102253 | 56 | 143 | 0.0 | 1.7 | 0.00 | 0.00 | 0.00 | 66 | 1010.8 |
| 20260509101753 | 56 | 112 | 0.0 | 0.9 | 0.00 | 0.00 | 0.00 | 66 | 1010.9 |
| 20260509101254 | 56 | 106 | 0.9 | 2.6 | 0.00 | 0.00 | 0.00 | 66 | 1010.9 |
| 20260509101016 | 56 | 115 | 0.9 | 2.6 | 0.00 | 0.00 | 0.00 | 65 | 1010.8 |
| 20260509100513 | 56 | 171 | 0.9 | 3.5 | 0.00 | 0.00 | 0.00 | 66 | 1010.7 |
| 20260509100016 | 56 | 155 | 0.9 | 7.0 | 0.00 | 0.00 | 0.00 | 65 | 1010.7 |
| 20260509095248 | 56 | 112 | 0.9 | 7.0 | 0.00 | 0.00 | 0.00 | 65 | 1010.7 |
| 20260509094742 | 55 | 184 | 0.9 | 3.5 | 0.00 | 0.00 | 0.00 | 64 | 1010.7 |
| 20260509094236 | 55 | 228 | 0.9 | 7.0 | 0.00 | 0.00 | 0.00 | 65 | 1010.8 |
| 20260509093730 | 55 | 256 | 0.9 | 7.0 | 0.00 | 0.00 | 0.00 | 65 | 1010.7 |
| 20260509093231 | 55 | 230 | 0.9 | 4.3 | 0.00 | 0.00 | 0.00 | 65 | 1010.7 |
| 20260509092949 | 55 | 211 | 0.9 | 3.5 | 0.00 | 0.00 | 0.00 | 66 | 1010.8 |
| 20260509092230 | 55 | 244 | 0.9 | 2.6 | 0.00 | 0.00 | 0.00 | 66 | 1010.7 |
| 20260509091730 | 55 | 248 | 0.9 | 5.2 | 0.00 | 0.00 | 0.00 | 66 | 1010.9 |
| 20260509091716 | 55 | 209 | 0.9 | 5.2 | 0.00 | 0.00 | 0.00 | 66 | 1010.9 |
| 20260509090727 | 55 | 218 | 0.9 | 2.6 | 0.00 | 0.00 | 0.00 | 65 | 1011.0 |
| 20260509090227 | 55 | 251 | 0.9 | 4.3 | 0.00 | 0.00 | 0.00 | 66 | 1011.1 |
| 20260509085730 | 55 | 231 | 0.9 | 4.3 | 0.00 | 0.00 | 0.00 | 65 | 1011.1 |
| 20260509085452 | 55 | 237 | 0.9 | 4.3 | 0.00 | 0.00 | 0.00 | 66 | 1011.2 |
| 20260509084730 | 55 | 252 | 0.9 | 4.3 | 0.00 | 0.00 | 0.00 | 66 | 1011.3 |
| 20260509084224 | 55 | 302 | 0.9 | 6.1 | 0.00 | 0.00 | 0.00 | 66 | 1011.3 |
| 20260509083726 | 55 | 126 | 0.9 | 6.1 | 0.00 | 0.00 | 0.00 | 65 | 1011.3 |
| 20260509083223 | 55 | 244 | 0.9 | 3.5 | 0.00 | 0.00 | 0.00 | 66 | 1011.4 |
| 20260509082724 | 55 | 207 | 0.9 | 3.5 | 0.00 | 0.00 | 0.00 | 66 | 1011.5 |
| 20260509082223 | 55 | 196 | 0.9 | 2.6 | 0.00 | 0.00 | 0.00 | 66 | 1011.5 |
| 20260509081724 | 55 | 170 | 0.9 | 2.6 | 0.00 | 0.00 | 0.00 | 67 | 1011.6 |
| 20260509081222 | 55 | 259 | 0.9 | 2.6 | 0.00 | 0.00 | 0.00 | 65 | 1011.5 |
| 20260509080722 | 55 | 155 | 0.9 | 2.6 | 0.00 | 0.00 | 0.00 | 66 | 1011.6 |
| 20260509080224 | 55 | 45 | 0.9 | 2.6 | 0.00 | 0.00 | 0.00 | 66 | 1011.7 |
| 20260509075719 | 55 | 348 | 0.9 | 2.6 | 0.00 | 0.00 | 0.00 | 66 | 1011.8 |
| 20260509075444 | 55 | 257 | 0.9 | 2.6 | 0.00 | 0.00 | 0.00 | 66 | 1011.9 |
| 20260509074942 | 55 | 123 | 0.0 | 2.6 | 0.00 | 0.00 | 0.00 | 67 | 1011.9 |
| 20260509074218 | 55 | 211 | 0.0 | 1.7 | 0.00 | 0.00 | 0.00 | 66 | 1011.8 |
| 20260509073719 | 55 | 242 | 0.9 | 3.5 | 0.00 | 0.00 | 0.00 | 66 | 1011.9 |
| 20260509073218 | 54 | 144 | 0.9 | 3.5 | 0.00 | 0.00 | 0.00 | 66 | 1011.9 |
| 20260509072719 | 54 | 254 | 0.0 | 1.7 | 0.00 | 0.00 | 0.00 | 66 | 1011.9 |
| 20260509072220 | 54 | 284 | 0.0 | 2.6 | 0.00 | 0.00 | 0.00 | 67 | 1011.9 |
| 20260509071720 | 54 | 221 | 0.9 | 3.5 | 0.00 | 0.00 | 0.00 | 66 | 1012.0 |
| 20260509071213 | 54 | 138 | 0.9 | 3.5 | 0.00 | 0.00 | 0.00 | 66 | 1011.9 |
| 20260509070932 | 54 | 117 | 0.0 | 1.7 | 0.00 | 0.00 | 0.00 | 67 | 1012.0 |
| 20260509070204 | 54 | 72 | 0.0 | 1.7 | 0.00 | 0.00 | 0.00 | 67 | 1011.9 |
| 20260509065702 | 54 | 72 | 0.0 | 1.7 | 0.00 | 0.00 | 0.00 | 67 | 1011.8 |
| 20260509065656 | 54 | 130 | 0.0 | 1.7 | 0.00 | 0.00 | 0.00 | 67 | 1011.8 |
| 20260509064701 | 55 | 205 | 0.0 | 0.9 | 0.00 | 0.00 | 0.00 | 66 | 1011.8 |
| 20260509064159 | 55 | 205 | 0.0 | 0.9 | 0.00 | 0.00 | 0.00 | 67 | 1011.8 |
| 20260509063924 | 55 | 205 | 0.0 | 1.7 | 0.00 | 0.00 | 0.00 | 66 | 1011.9 |
| 20260509063156 | 55 | 205 | 0.0 | 1.7 | 0.00 | 0.00 | 0.00 | 65 | 1012.0 |
| 20260509062654 | 55 | 276 | 0.0 | 0.9 | 0.00 | 0.00 | 0.00 | 65 | 1012.0 |
| 20260509062417 | 55 | 276 | 0.0 | 0.9 | 0.00 | 0.00 | 0.00 | 64 | 1012.1 |
| 20260509061650 | 55 | 210 | 0.0 | 0.9 | 0.00 | 0.00 | 0.00 | 64 | 1012.1 |